Terminal Aerodrome Forecast
Issued by NWS Topeka, KS

Home | Current Version | Previous Version | Text Only | Print | Product List | Glossary On
Versions: 1 2 3 4 5 6 7 8 9 10 11 12 13 14 15 16 17 18 19
000
FTUS43 KTOP 271100
TAFTOP
TAF
KTOP 271128Z 2712/2812 13003KT P6SM SCT060 BKN200
     FM271500 13004KT P6SM VCTS SCT010CB BKN060
     FM271800 11006KT P6SM BKN070 OVC200=

USA.gov is the U.S. government's official web portal to all federal, state and local government web resources and services.